Stations météo

réclame
Mon MeteoGroup
Exeter Airport No. 2, Grande-Bretagne (3844): Température de l'air & dewpoint: 18.04.2018 09:00:00 - 24.04.2018 09:00:00 (BST)Exeter Airport No. 2, Grande-Bretagne (3844): Vitesse du vent & gusts: 18.04.2018 09:00:00 - 24.04.2018 09:00:00 (BST)Exeter Airport No. 2, Grande-Bretagne (3844): Direction du vent: 18.04.2018 09:00:00 - 24.04.2018 09:00:00 (BST)Exeter Airport No. 2, Grande-Bretagne (3844): reduced air pressure: 18.04.2018 09:00:00 - 24.04.2018 09:00:00 (BST)Exeter Airport No. 2, Grande-Bretagne (3844): visibility: 18.04.2018 09:00:00 - 24.04.2018 09:00:00 (BST)Exeter Airport No. 2, Grande-Bretagne (3844): Ensoleillement: 18.04.2018 09:00:00 - 24.04.2018 09:00:00 (BST)Exeter Airport No. 2, Grande-Bretagne (3844): Quantités de précipitations: 18.04.2018 09:00:00 - 24.04.2018 09:00:00 (BST)
Date & Time tt [°C] td [°C] ff [km/h] ff [knt] fx [km/h] fx [knt] dd ppp [hPa] vv [km] sd [min] rr [mm]
24.04.2018 09:00:00 12,6 9,3 4 2 - - S 1016,6 40 0 0,0
24.04.2018 08:00:00 11,6 9,3 8 4 - - S 1016,8 23 0 0,0
24.04.2018 07:00:00 11,5 9,4 5 3 - - WSW 1016,6 30 0 0,0
24.04.2018 06:00:00 11,4 9,4 11 6 - - W 1016,5 30 0 0,0
24.04.2018 05:00:00 11,6 9,2 13 7 - - W 1016,3 35 0 0,0
24.04.2018 04:00:00 11,8 9,3 13 7 - - W 1016,8 35 0 0,0
24.04.2018 03:00:00 11,8 9,1 13 7 - - W 1016,9 40 0 0,0
24.04.2018 02:00:00 11,8 9,2 11 6 - - WSW 1016,7 50 0 0,0
24.04.2018 01:00:00 12,4 9,5 9 5 - - W 1017,0 45 - 0,0
24.04.2018 00:00:00 11,8 9,3 9 5 - - SSW 1017,4 40 0 0,0
23.04.2018 23:00:00 11,8 9,0 11 6 - - SSW 1017,6 27 0 0,0
23.04.2018 22:00:00 11,8 8,3 13 7 - - SSW 1017,6 29 0 0,0
23.04.2018 21:00:00 12,2 7,9 11 6 - - SW 1017,5 30 0 0,0
23.04.2018 20:00:00 12,7 7,8 16 9 - - SW 1017,0 30 0 0,0
23.04.2018 19:00:00 13,3 7,4 21 11 - - SW 1017,2 35 0 0,0
23.04.2018 18:00:00 13,7 8,0 24 13 - - WSW 1017,4 40 0 0,0
23.04.2018 17:00:00 14,7 7,5 24 13 - - SW 1017,4 45 6 0,0
23.04.2018 16:00:00 15,0 7,4 18 10 - - WSW 1017,6 50 24 0,0
23.04.2018 15:00:00 14,8 6,7 22 12 - - WSW 1018,2 50 6 0,0
23.04.2018 14:00:00 14,5 7,6 15 8 - - W 1018,4 50 0 0,0
23.04.2018 13:00:00 14,2 6,6 18 10 - - W 1018,6 50 6 0,0
23.04.2018 12:00:00 13,3 6,8 18 10 - - W 1018,5 45 0 0,0
23.04.2018 11:00:00 12,6 6,0 18 10 - - W 1018,5 50 12 0,0
23.04.2018 10:00:00 11,1 7,4 13 7 - - W 1018,5 35 0 0,0
23.04.2018 09:00:00 10,6 7,4 11 6 - - W 1018,2 30 0 0,0
23.04.2018 08:00:00 10,2 7,3 11 6 - - W 1017,7 30 0 0,0
23.04.2018 07:00:00 9,7 7,3 13 7 - - W 1017,1 27 0 0,0
23.04.2018 06:00:00 9,1 7,3 13 7 - - WSW 1016,5 24 0 0,0
23.04.2018 05:00:00 8,5 6,3 8 4 - - W 1016,1 25 0 0,0
23.04.2018 04:00:00 9,9 7,3 9 5 - - W 1016,1 28 0 0,0
23.04.2018 03:00:00 9,9 7,1 15 8 - - WNW 1015,8 28 0 0,0
23.04.2018 02:00:00 10,0 6,8 15 8 - - W 1015,9 30 0 0,0
23.04.2018 01:00:00 9,3 6,7 8 4 - - W 1015,9 29 - 0,0
23.04.2018 00:00:00 9,3 6,7 13 7 - - W 1015,4 29 0 0,0
22.04.2018 23:00:00 9,2 6,5 16 9 - - W 1014,9 30 0 0,0
22.04.2018 22:00:00 9,1 6,0 13 7 - - W 1014,4 30 0 0,0
22.04.2018 21:00:00 10,2 6,3 13 7 - - W 1013,8 35 18 0,0
22.04.2018 20:00:00 11,8 6,4 15 8 - - W 1012,9 45 60 0,0
22.04.2018 19:00:00 13,1 7,9 21 11 - - W 1012,1 50 48 0,0
22.04.2018 18:00:00 14,6 9,5 15 8 - - WNW 1011,4 50 36 0,0
22.04.2018 17:00:00 14,6 10,6 18 10 - - WNW 1011,2 50 30 0,0
22.04.2018 16:00:00 14,8 11,0 18 10 - - WNW 1010,9 45 18 0,0
22.04.2018 15:00:00 15,8 11,5 22 12 - - WNW 1010,8 50 6 0,0
22.04.2018 14:00:00 15,9 8,3 18 10 - - WNW 1010,3 50 6 0,0
22.04.2018 13:00:00 17,9 5,7 5 3 - - W 1009,8 50 24 0,0
22.04.2018 12:00:00 17,6 10,7 4 2 - - NW 1009,8 16 54 0,0
22.04.2018 11:00:00 14,8 10,1 5 3 - - N 1010,1 13 36 0,0
22.04.2018 10:00:00 13,7 9,9 18 10 - - WNW 1010,3 11 48 0,0
22.04.2018 09:00:00 12,3 12,3 4 2 - - NE 1009,8 5 60 0,0
22.04.2018 08:00:00 9,4 9,4 2 1 - - WSW 1009,8 0,2 48 0,0
22.04.2018 07:00:00 6,8 6,8 0 0 - - N 1009,6 0,1 0 0,0
22.04.2018 06:00:00 8,3 8,3 5 3 - - ENE 1009,4 2,6 0 0,0
22.04.2018 05:00:00 7,7 7,7 2 1 - - SW 1009,9 - 0 0,0
22.04.2018 04:00:00 8,3 8,0 4 2 - - NE 1010,3 0,9 0 0,0
22.04.2018 03:00:00 9,7 9,3 2 1 - - NNE 1011,0 1,6 0 0,0
22.04.2018 02:00:00 10,7 10,1 4 2 - - WSW 1011,7 2,8 0 0,0
22.04.2018 01:00:00 10,6 9,4 2 1 - - SW 1012,5 3,3 - 0,0
22.04.2018 00:00:00 11,8 11,0 4 2 - - NNE 1013,0 4,8 0 0,0
21.04.2018 23:00:00 11,9 10,3 4 2 - - W 1013,4 3,1 0 0,0
21.04.2018 22:00:00 12,8 10,4 8 4 - - S 1013,6 5 0 0,0
21.04.2018 21:00:00 12,8 10,5 5 3 - - SSE 1013,3 6 0 0,0
21.04.2018 20:00:00 14,1 11,4 8 4 - - W 1013,0 9 0 0,2
21.04.2018 19:00:00 14,3 11,2 24 13 - - ESE 1014,5 9 0 1,4
21.04.2018 18:00:00 16,7 11,2 8 4 - - SSE 1015,1 14 24 0,0
21.04.2018 17:00:00 18,2 11,3 18 10 - - SSE 1015,4 19 60 0,0
21.04.2018 16:00:00 19,7 11,9 16 9 - - SE 1015,9 24 60 0,0
21.04.2018 15:00:00 19,8 12,2 18 10 - - SE 1016,9 24 60 0,0
21.04.2018 14:00:00 20,4 12,2 18 10 - - SE 1017,4 35 60 0,0
21.04.2018 13:00:00 19,2 13,9 4 2 - - S 1018,3 13 36 0,0
21.04.2018 12:00:00 14,9 12,1 9 5 - - WSW 1019,1 2,8 0 0,0
21.04.2018 11:00:00 15,0 11,3 9 5 - - E 1019,4 15 0 0,0
21.04.2018 10:00:00 13,5 10,7 2 1 - - SSW 1020,5 19 6 0,0
21.04.2018 09:00:00 11,5 9,1 2 1 - - S 1020,6 20 48 0,0
21.04.2018 08:00:00 10,1 9,5 2 1 - - ENE 1020,6 16 60 0,0
21.04.2018 07:00:00 7,3 6,9 0 0 - - N 1020,9 12 0 0,0
21.04.2018 06:00:00 6,6 6,3 2 1 - - NNE 1021,0 12 0 0,0
21.04.2018 05:00:00 7,1 6,2 5 3 - - N 1021,4 14 0 0,0
21.04.2018 04:00:00 8,0 6,6 8 4 - - N 1021,9 19 0 0,0
21.04.2018 03:00:00 8,4 6,8 5 3 - - N 1022,2 19 0 0,0
21.04.2018 02:00:00 9,0 6,5 8 4 - - NNW 1022,6 25 0 0,0
21.04.2018 01:00:00 9,6 6,7 8 4 - - NNW 1022,9 26 - 0,0
21.04.2018 00:00:00 9,9 6,7 4 2 - - NNW 1023,1 29 0 0,0
20.04.2018 23:00:00 11,1 8,0 9 5 - - NW 1023,4 28 0 0,0
20.04.2018 22:00:00 12,2 9,5 5 3 - - NW 1023,7 30 0 0,0
20.04.2018 21:00:00 14,6 10,7 9 5 - - NW 1023,4 35 0 0,0
20.04.2018 20:00:00 18,1 8,8 5 3 - - NNW 1022,9 50 54 0,0
20.04.2018 19:00:00 19,5 11,6 8 4 - - WNW 1022,7 50 60 0,0
20.04.2018 18:00:00 20,9 12,3 11 6 - - WNW 1022,8 50 60 0,0
20.04.2018 17:00:00 21,7 12,6 5 3 - - WSW 1023,0 50 60 0,0
20.04.2018 16:00:00 21,1 12,0 8 4 - - W 1023,4 50 60 0,0
20.04.2018 15:00:00 20,7 12,9 8 4 - - W 1023,9 50 60 0,0
20.04.2018 14:00:00 20,1 12,7 11 6 - - WNW 1024,1 45 60 0,0
20.04.2018 13:00:00 18,7 12,7 9 5 - - WNW 1024,7 35 60 0,0
20.04.2018 12:00:00 16,9 11,8 11 6 - - WNW 1024,9 35 60 0,0
20.04.2018 11:00:00 15,0 11,1 13 7 - - WNW 1024,9 35 60 0,0
20.04.2018 10:00:00 12,7 10,5 13 7 - - WNW 1025,1 28 60 0,0
20.04.2018 09:00:00 11,0 9,9 13 7 - - WNW 1025,1 14 24 0,0
20.04.2018 08:00:00 9,9 9,2 11 6 - - WNW 1025,0 7 0 0,0
20.04.2018 07:00:00 9,5 8,9 9 5 - - NW 1024,8 8 0 0,0
20.04.2018 06:00:00 9,5 9,4 9 5 - - NNW 1024,2 7 0 0,0
20.04.2018 05:00:00 9,4 9,4 9 5 - - NNW 1024,4 15 0 0,0
20.04.2018 04:00:00 9,6 9,6 11 6 - - NW 1024,4 5 0 0,0
20.04.2018 03:00:00 10,0 10,0 13 7 - - NW 1024,4 3,7 0 0,0
20.04.2018 02:00:00 10,2 10,1 15 8 - - WNW 1024,4 1,3 0 0,0
20.04.2018 01:00:00 10,7 10,6 9 5 - - WNW 1024,4 0,8 - 0,0
20.04.2018 00:00:00 10,8 10,7 13 7 - - NW 1024,2 1,5 0 0,0
19.04.2018 23:00:00 10,8 10,3 13 7 - - NW 1024,3 9 0 0,0
19.04.2018 22:00:00 12,1 10,7 11 6 - - WNW 1024,4 20 0 0,0
19.04.2018 21:00:00 14,0 12,0 13 7 - - WNW 1024,0 24 0 0,0
19.04.2018 20:00:00 16,4 13,0 11 6 - - WNW 1023,4 30 60 0,0
19.04.2018 19:00:00 19,2 13,9 16 9 - - NW 1023,2 30 60 0,0
19.04.2018 18:00:00 21,0 14,7 15 8 - - NW 1023,2 30 60 0,0
19.04.2018 17:00:00 22,0 13,8 11 6 - - WNW 1023,0 40 60 0,0
19.04.2018 16:00:00 22,7 13,9 11 6 - - WNW 1022,9 50 54 0,0
19.04.2018 15:00:00 23,4 10,9 4 2 - - N 1023,1 40 60 0,0
19.04.2018 14:00:00 23,2 11,6 4 2 - - SSW 1023,2 35 60 0,0
19.04.2018 13:00:00 21,8 11,2 5 3 - - SE 1023,3 20 60 0,0
19.04.2018 12:00:00 19,5 11,9 4 2 - - ENE 1023,6 28 60 0,0
19.04.2018 11:00:00 17,8 11,8 8 4 - - WNW 1023,6 25 60 0,0
19.04.2018 10:00:00 14,5 10,7 4 2 - - WNW 1023,7 17 60 0,0
19.04.2018 09:00:00 11,3 10,3 5 3 - - NW 1023,4 13 60 -
19.04.2018 08:00:00 8,6 8,6 5 3 - - ENE 1023,3 6 60 -
19.04.2018 07:00:00 5,8 5,8 2 1 - - NE 1022,9 2,9 0 -
19.04.2018 06:00:00 5,0 4,8 4 2 - - NW 1022,4 2,2 0 -
19.04.2018 05:00:00 6,1 6,0 5 3 - - E 1022,3 3,8 0 -
19.04.2018 04:00:00 6,3 6,0 5 3 - - W 1022,1 4,1 0 -
19.04.2018 03:00:00 6,5 6,0 5 3 - - ESE 1022,3 5 0 -
19.04.2018 02:00:00 7,7 7,0 4 2 - - E 1022,4 7 0 0,0
19.04.2018 01:00:00 9,3 8,0 8 4 - - NNE 1022,6 9 - 0,0
19.04.2018 00:00:00 8,7 7,4 8 4 - - E 1022,7 7 0 0,0
18.04.2018 23:00:00 11,3 8,8 11 6 - - SW 1022,8 15 0 0,0
18.04.2018 22:00:00 11,4 8,5 9 5 - - SSW 1022,5 17 0 0,0
18.04.2018 21:00:00 13,3 8,5 11 6 - - SW 1022,2 22 6 0,0
18.04.2018 20:00:00 16,4 8,9 24 13 - - ESE 1021,7 30 60 0,0
18.04.2018 19:00:00 17,5 9,8 26 14 - - ESE 1022,0 35 60 0,0
18.04.2018 18:00:00 18,2 10,2 31 17 52 28 ESE 1022,4 35 60 0,0
18.04.2018 17:00:00 18,5 10,3 31 17 48 26 ESE 1023,0 40 60 0,0
18.04.2018 16:00:00 18,9 10,8 31 17 46 25 SE 1023,6 50 60 0,0
18.04.2018 15:00:00 18,7 10,8 29 16 48 26 SE 1024,0 40 60 0,0
18.04.2018 14:00:00 18,6 12,9 28 15 - - SE 1024,3 50 60 0,0
18.04.2018 13:00:00 18,2 12,3 26 14 - - SE 1024,8 45 60 0,0
18.04.2018 12:00:00 16,9 11,7 22 12 - - SE 1025,3 40 60 0,0
18.04.2018 11:00:00 15,9 11,9 16 9 - - SSE 1025,8 35 60 0,0
18.04.2018 10:00:00 14,5 10,7 11 6 - - SE 1025,8 27 60 0,0
18.04.2018 09:00:00 13,3 10,6 13 7 - - ESE 1025,9 24 60 0,0

tt = Température de l'air
td = dewpoint
ff = Vitesse du vent
fx = gusts
dd = Direction du vent
ppp = reduced air pressure
vv = visibility
sd = Ensoleillement
rr = Quantités de précipitations

stations d'obs. à proximité